Home   Weather   Stuttgart   Past weeks
Flag for Germany

Past Weather in Stuttgart, Baden-Württemberg, Germany — Yesterday and Last 2 Weeks

Now
23 °F

Passing clouds.


Feels Like: 23 °F
Forecast: 28 / 23 °F
Wind: 1 mph from North

Location: Stuttgart-Echterdingen

Current Time: Jan 23, 2019 at 4:18:51 am

Latest Report: Jan 23, 2019 at 3:50 am


Visibility: N/A

Pressure: 29.47 "Hg

Humidity: 86%

Dew Point: 19 °F

Location of StuttgartLocation

Past Weather in Stuttgart — Graph

°F

Stuttgart Temperature Yesterday

Maximum temperature yesterday: 32 °F (at 1:50 pm)
Minimum temperature yesterday: 21 °F (at 1:50 am)
Average temperature yesterday: 26 °F

High & Low Weather Summary for the Past Weeks

 TemperatureHumidityPressure
High46 °F (Jan 13, 10:20 pm)100% (Jan 9, 8:20 am)30.27 "Hg (Jan 9, 8:20 am)
Low16 °F (Jan 20, 2:50 am)53% (Jan 16, 1:50 pm)29.50 "Hg (Jan 23, 2:50 am)
Average33 °F83%29.98 "Hg
* Reported Jan 8 3:20 am — Jan 23 3:20 am, Stuttgart. Weather by CustomWeather, © 2019

Note: Actual official high and low records may vary slightly from our data, if they occured in-between our weather recording intervals... More about our weather records

Advertising

Stuttgart Weather History for the Previous 24 Hours

Scroll right to see more
 ConditionsComfort  
Time TempWeatherWind HumidityBarometerVisibility
3:20 am
Wed, Jan 23
23 °FPassing clouds.2 mph86%29.50 "HgN/A
2:50 am25 °FPassing clouds.5 mph80%29.50 "HgN/A
2:20 am25 °FPassing clouds.6 mph80%29.53 "HgN/A
1:50 am27 °FPassing clouds.5 mph80%29.53 "HgN/A
1:20 am25 °FPassing clouds.2 mph80%29.53 "HgN/A
12:50 am27 °FPassing clouds.3 mph74%29.56 "HgN/A
12:20 am27 °FPassing clouds.5 mph80%29.56 "HgN/A
11:50 pm
Tue, Jan 22
27 °FPassing clouds.6 mph80%29.56 "HgN/A
11:20 pm27 °FPassing clouds.6 mph80%29.56 "HgN/A
10:50 pm27 °FPassing clouds.7 mph80%29.59 "HgN/A
10:20 pm28 °FPassing clouds.9 mph74%29.59 "HgN/A
9:20 pm28 °FPassing clouds.7 mph74%29.62 "HgN/A
8:50 pm28 °FPassing clouds.6 mph80%29.62 "HgN/A
8:20 pm28 °FPassing clouds.7 mph80%29.62 "HgN/A
7:50 pm28 °FPassing clouds.6 mph80%29.62 "HgN/A
7:20 pm28 °FPassing clouds.5 mph80%29.62 "HgN/A
6:50 pm30 °FPassing clouds.5 mph75%29.65 "HgN/A
6:20 pm30 °FPassing clouds.5 mph75%29.65 "HgN/A
5:50 pm30 °FPassing clouds.5 mph75%29.65 "HgN/A
5:20 pm30 °FPassing clouds.5 mph80%29.68 "HgN/A
4:50 pm30 °FPartly sunny.6 mph75%29.68 "HgN/A
4:20 pm30 °FPartly sunny.7 mph80%29.68 "HgN/A
3:50 pm32 °FPartly sunny.6 mph75%29.68 "HgN/A
3:20 pm32 °FPartly sunny.3 mph75%29.71 "HgN/A
2:50 pm32 °FPartly sunny.3 mph69%29.71 "HgN/A
2:20 pm32 °FPartly sunny.3 mph75%29.74 "HgN/A
1:50 pm32 °FPartly sunny.3 mph69%29.77 "HgN/A
1:20 pm30 °FPartly sunny.2 mph75%29.77 "HgN/A
12:50 pm30 °FPartly sunny.3 mph75%29.80 "HgN/A
12:20 pm30 °FPartly sunny.2 mph75%29.83 "HgN/A
11:50 am28 °FPartly sunny.3 mph80%29.83 "HgN/A
11:20 am27 °FPartly sunny.6 mph86%29.86 "HgN/A
10:50 am27 °FPartly sunny.5 mph80%29.86 "HgN/A
10:20 am25 °FPartly sunny.3 mph86%29.86 "HgN/A
9:50 am25 °FPartly sunny.3 mph86%29.89 "Hg6 mi
9:20 am23 °FPartly sunny.3 mph93%29.89 "Hg6 mi
8:50 am23 °FPartly sunny.2 mph86%29.89 "Hg5 mi
8:20 am23 °FPartly sunny.3 mph86%29.89 "Hg6 mi
7:50 am23 °FPassing clouds.1 mph86%29.92 "Hg6 mi
7:20 am21 °FPassing clouds.2 mph86%29.92 "HgN/A
6:50 am21 °FPassing clouds.5 mph86%29.92 "HgN/A
6:20 am23 °FPassing clouds.3 mph86%29.92 "HgN/A
5:50 am25 °FPassing clouds.2 mph86%29.95 "HgN/A
5:20 am23 °FPassing clouds.2 mph93%29.95 "Hg6 mi
4:50 am23 °FPassing clouds.2 mph86%29.95 "Hg6 mi
4:20 am23 °FPassing clouds.2 mph93%29.98 "Hg6 mi
Weather by CustomWeather, © 2019

See weather overview